RH
11 9 9 9 8 11 20 57 41 40 31 41 54 61 60 64 88 87 96 75 78 75 96 69 100 87 100 100 96 80 56 86 100 98 99 86 56 48 47 47 47 34 44
12 12 13 11 10 9 12 29 59 72 48 37 40 62 64 82 77 89 91 100 100 77 86 77 76 100 100 100 94 94 82 52 99 100 100 100 88 74 45 54 53 30 28
24 81 98 43 21 13 18 44 49 73 66 67 45 43 51 62 70 100 100 100 100 93 100 100 100 90 100 95 100 96 86 71 75 79 100 100 100 100 100 86 63 45 24
61 74 73 74 50 31 28 28 63 67 93 78 76 33 50 47 73 77 92 100 100 100 100 100 100 100 100 99 100 84 100 100 80 83 81 90 90 99 87 91 94 85 35
78 98 100 100 99 99 55 40 38 92 100 100 100 92 58 80 82 72 94 100 100 99 100 100 100 100 100 98 100 78 89 91 100 82 97 80 82 75 82 96 100 96 58
66 99 100 100 97 100 100 96 47 47 74 100 100 100 100 55 51 51 82 100 100 100 100 100 100 100 100 100 100 100 95 88 79 94 78 81 76 92 64 67 92 100 87
60 76 100 100 100 100 100 100 96 48 59 79 93 100 100 100 90 51 46 48 51 62 99 100 100 100 100 100 100 100 100 100 85 75 100 98 91 79 76 56 87 100 100
20 27 55 89 100 100 86 86 100 78 81 90 98 96 100 99 100 100 69 59 48 51 66 92 100 98 100 100 100 100 100 100 100 100 80 90 100 100 98 73 68 98 100
18 18 19 29 77 100 86 89 100 98 79 98 100 100 99 100 100 100 97 97 59 47 65 71 70 90 100 100 100 100 100 100 100 100 100 69 94 100 100 100 91 60 75
18 18 18 18 18 22 31 46 78 100 100 88 71 100 100 100 100 94 100 100 100 82 58 41 65 77 85 92 85 100 100 100 100 100 100 100 97 60 84 100 100 99 58
21 19 19 19 18 16 16 16 22 65 100 97 85 100 100 100 100 92 100 100 100 100 100 83 49 37 70 57 77 87 100 100 100 100 100 100 100 98 72 59 82 100 100
27 24 21 20 20 19 17 18 17 17 17 29 87 76 85 99 100 100 100 97 100 100 100 100 100 79 49 51 64 90 65 100 100 100 100 100 100 100 97 72 70 86 100
39 38 32 28 25 22 19 20 20 21 22 20 16 19 43 51 88 100 100 100 92 100 98 100 100 100 100 94 38 38 56 100 100 100 100 100 100 100 100 98 65 88 95
44 44 44 41 43 40 35 27 20 25 27 28 28 27 25 21 19 20 34 81 90 100 100 97 93 91 98 87 100 94 60 41 66 98 100 100 100 100 100 100 100 69 79
54 50 51 58 62 67 76 57 44 36 30 29 31 31 31 34 38 36 34 32 44 59 79 80 83 84 84 97 89 99 100 78 40 72 85 98 100 100 100 100 100 100 62
90 78 67 71 88 100 100 96 99 89 72 61 51 51 54 54 50 47 42 47 47 46 49 56 60 72 67 62 81 91 100 100 100 100 80 62 85 93 100 100 100 100 100
87 71 82 76 73 72 94 100 95 86 87 82 77 74 76 66 65 58 50 50 53 43 39 34 34 42 48 59 76 82 64 78 99 100 99 99 98 78 85 86 97 100 100
100 100 92 96 92 83 83 82 86 98 97 100 100 94 82 76 77 67 61 58 45 44 49 39 33 28 32 26 32 52 73 69 62 80 99 100 96 89 71 97 86 95 100
91 100 100 100 100 100 100 100 94 98 100 100 99 90 81 87 88 74 59 52 47 43 43 38 42 52 43 26 30 32 34 52 68 68 75 80 86 97 97 98 92 83 85
80 72 82 92 100 100 100 100 100 100 100 100 100 100 97 87 84 80 64 46 41 48 46 42 35 28 28 25 28 28 26 27 32 54 64 69 69 65 78 99 76 91 75
100 88 64 64 67 77 82 76 71 67 77 80 88 88 84 80 67 49 41 52 34 34 35 34 34 31 30 26 23 25 26 25 21 20 29 46 62 54 52 68 88 95 100
92 98 100 97 84 71 71 58 54 56 54 53 58 59 58 58 39 33 35 37 38 35 32 31 32 32 32 32 32 27 28 28 24 23 20 18 28 49 46 51 53 77 93
100 100 80 67 74 69 51 47 44 43 42 39 39 40 38 32 31 32 34 34 37 37 38 38 33 30 32 33 34 33 30 28 27 21 21 18 17 22 34 45 46 49 67
64 60 53 58 52 55 53 52 50 45 46 42 42 40 38 38 40 50 53 60 59 44 43 49 45 40 37 31 32 32 30 30 26 24 25 19 16 18 17 25 42 50 48
71 75 70 69 60 69 67 63 55 48 47 47 42 49 58 57 51 62 58 71 69 57 47 43 42 38 41 42 39 40 40 33 28 28 22 25 14 14 15 15 22 36 46
66 58 59 63 72 75 64 63 60 62 66 71 70 69 74 79 73 65 65 54 47 52 50 46 45 48 43 40 38 38 33 25 19 17 14 16 21 16 10 12 14 20 25
Wind_Speed
55 54 55 56 57 63 72 70 64 63 65 63 60 59 58 55 55 54 51 51 47 49 44 42 42 40 34 38 39 39 33 31 25 22 23 26 27 26 26 26 24 23 23
46 50 55 55 52 51 59 65 65 66 66 66 63 62 61 60 60 57 55 54 47 48 50 47 46 47 38 38 43 39 36 37 31 24 22 20 23 26 28 25 24 24 23
36 41 42 49 52 50 52 60 64 67 65 61 67 66 63 63 65 58 55 57 53 52 47 47 44 46 46 41 36 39 38 37 36 38 32 26 22 20 22 24 26 27 23
40 41 48 47 48 48 47 54 60 60 60 62 64 66 64 64 64 63 62 59 55 55 51 51 44 43 40 38 40 44 37 35 36 35 33 31 27 24 23 20 25 27 26
17 26 33 22 31 30 38 44 55 58 61 60 54 60 62 59 63 61 65 63 57 55 59 54 53 45 43 47 39 46 42 41 42 40 37 38 35 33 28 22 20 27 29
10 17 23 29 30 33 24 24 47 59 60 70 70 62 59 60 62 63 67 65 67 65 61 60 57 56 52 50 42 40 43 47 44 43 42 38 37 33 36 32 25 24 30
15 15 22 25 31 32 26 29 34 49 59 60 63 64 67 53 54 61 61 67 67 66 68 63 60 64 59 55 52 53 45 44 46 47 46 44 40 37 35 36 29 28 27
13 13 18 23 32 36 41 40 37 42 50 58 59 58 57 57 49 58 58 62 63 68 71 72 71 68 65 57 63 59 55 56 47 50 52 47 45 44 43 40 37 36 30
15 15 14 17 30 37 39 34 40 43 47 52 63 64 63 65 59 58 58 58 65 68 70 70 75 76 70 66 63 68 64 59 60 55 55 55 49 49 50 47 47 44 41
19 18 18 17 15 18 27 36 45 46 47 50 54 64 64 62 71 68 63 58 57 64 66 70 71 75 76 77 69 68 71 66 61 62 53 52 54 54 53 52 51 50 48
26 24 22 22 22 22 22 21 26 42 54 55 50 67 72 70 70 74 71 73 70 63 64 68 71 74 78 82 80 74 75 70 69 66 62 59 60 56 55 56 54 53 54
34 33 32 32 31 30 29 29 28 28 28 35 52 57 65 76 76 74 82 79 79 79 77 72 68 64 75 83 80 81 80 80 76 75 72 67 66 63 59 58 57 56 56
41 40 41 41 40 40 40 39 38 36 37 37 36 37 45 54 70 82 85 86 90 84 86 88 83 83 79 79 83 89 87 85 81 81 79 78 74 70 66 62 63 62 60
47 50 50 49 49 49 49 50 51 48 48 49 47 48 49 50 51 52 56 60 67 74 77 77 92 94 93 92 86 86 92 92 93 91 88 85 81 78 77 72 65 68 67
52 53 54 56 56 56 57 57 57 57 58 57 57 58 59 60 63 63 64 62 64 67 69 68 68 71 82 86 101 98 92 94 96 100 97 97 91 88 84 82 75 73 74
59 58 58 59 60 61 61 62 64 64 64 66 68 69 70 71 71 70 70 70 72 73 75 77 76 76 76 76 76 92 98 101 97 96 96 104 103 96 97 91 89 82 78
62 64 64 65 66 67 68 69 71 72 72 72 73 76 77 77 77 77 78 79 80 82 83 83 84 85 86 86 85 84 84 88 103 106 105 106 104 106 105 105 100 93 89
63 66 68 68 68 70 72 73 76 77 78 79 79 80 80 81 82 83 84 86 88 90 90 91 93 93 96 95 95 94 93 93 92 97 108 106 110 110 113 109 108 107 100
66 66 66 67 70 71 71 75 77 79 80 81 83 84 86 88 88 89 89 91 93 97 100 100 100 99 97 96 103 103 101 102 105 101 100 104 108 111 112 114 112 114 107
72 70 72 73 74 75 78 79 79 80 80 83 85 88 90 90 90 92 95 95 96 92 91 90 87 87 88 89 89 94 99 105 108 110 111 107 108 109 111 119 122 118 118
72 76 78 79 77 79 81 85 89 91 91 90 89 92 93 95 96 94 93 86 78 76 80 82 86 87 91 93 95 97 100 101 105 112 116 117 118 121 118 113 123 125 122
80 79 82 84 82 79 80 75 77 77 83 89 89 87 84 79 79 77 77 80 82 83 83 87 91 92 97 98 99 99 105 108 108 113 116 120 123 125 125 122 121 123 129
86 88 86 80 73 72 67 67 67 69 66 69 69 71 74 77 79 82 83 84 85 88 91 95 97 97 98 103 107 107 108 114 117 118 120 124 129 131 132 135 133 128 131
73 72 71 68 67 70 72 71 71 73 74 76 77 78 81 84 86 86 88 89 91 92 95 97 98 101 102 106 109 112 113 115 122 121 126 129 131 133 142 140 143 140 137
71 73 72 74 74 76 79 79 79 80 82 85 86 87 89 90 91 92 92 94 96 98 99 101 101 104 107 106 110 114 119 124 127 125 131 137 137 140 142 147 146 149 146
75 76 73 74 77 80 82 84 85 85 86 88 90 91 92 94 95 96 98 98 100 102 104 104 105 109 111 113 116 121 127 130 138 137 133 140 149 146 142 147 152 152 153
Wind_Direction
253 257 256 256 252 247 243 240 241 241 239 236 233 234 235 233 233 235 237 239 231 228 229 227 224 222 236 233 230 223 218 224 236 244 252 246 245 247 248 252 256 253 247
253 249 249 249 249 247 242 238 236 236 236 236 233 229 231 230 233 235 237 232 226 233 234 226 222 228 222 229 238 238 228 223 227 237 240 233 238 242 245 244 249 249 253
257 246 248 248 248 247 243 235 232 234 238 235 233 229 230 232 234 231 235 233 233 230 232 224 221 229 227 229 237 238 246 236 234 226 221 220 222 230 238 242 241 243 244
258 254 251 250 249 246 242 233 228 232 233 237 240 236 232 232 235 234 232 237 236 232 230 226 226 221 223 224 242 237 238 248 244 235 231 235 226 227 228 233 236 238 240
286 243 240 227 254 243 247 238 229 226 228 227 231 241 237 235 234 234 234 234 234 238 233 229 230 218 228 240 234 246 238 242 245 244 239 239 237 238 228 225 236 236 236
298 263 239 247 230 245 229 260 230 226 227 229 228 235 241 244 240 235 235 237 239 238 238 235 232 230 231 241 223 232 246 243 243 245 239 245 242 240 241 235 237 243 234
303 265 244 239 231 227 220 234 247 233 229 231 234 236 241 235 243 243 241 237 238 239 241 240 240 236 239 238 237 221 228 245 251 241 239 242 243 245 243 238 233 243 241
304 281 249 242 232 240 244 247 243 238 234 231 230 230 226 230 235 249 241 241 244 240 240 241 243 240 235 239 238 233 227 228 238 245 246 240 238 239 246 247 239 235 246
306 307 290 260 239 245 248 243 241 246 237 238 231 231 234 227 226 232 242 249 245 247 242 241 242 243 241 244 241 238 235 234 233 240 242 242 238 239 240 244 249 245 241
286 289 289 285 275 265 257 251 240 241 246 247 241 228 229 232 233 230 235 234 245 247 249 248 247 246 246 248 244 242 236 233 239 233 233 232 247 243 240 240 245 247 245
271 273 268 271 269 268 270 263 253 247 243 247 247 233 231 234 233 235 238 236 238 239 240 244 249 250 246 247 248 246 239 238 235 233 230 228 230 240 242 242 241 244 248
270 270 266 266 264 256 255 255 256 259 263 256 253 245 243 235 241 237 241 240 240 242 241 235 236 238 244 243 243 245 248 241 239 238 235 231 229 232 238 239 240 239 241
268 265 265 266 264 263 255 253 255 260 260 259 249 246 246 246 247 247 246 241 246 247 242 247 244 243 242 241 241 245 246 243 241 240 238 236 232 232 236 237 238 238 237
266 266 265 266 265 264 264 263 256 252 262 261 260 261 257 260 257 253 251 252 253 253 250 255 247 247 244 246 244 241 242 245 246 246 243 240 235 234 234 235 235 236 236
272 270 268 266 264 265 266 263 261 261 260 257 259 259 257 258 262 265 267 266 264 259 261 258 256 256 254 250 243 244 241 240 245 246 245 243 240 237 239 234 236 236 235
270 269 268 266 265 263 263 263 261 260 259 259 258 260 263 265 268 269 268 267 267 267 266 266 262 257 251 252 252 252 247 240 241 240 246 248 245 244 240 239 234 237 233
271 270 268 269 268 268 265 263 262 261 260 261 262 263 263 264 267 269 270 272 270 267 266 264 262 263 259 254 250 248 251 253 245 239 239 243 244 247 243 243 239 237 240
275 274 273 272 272 270 270 269 268 266 264 263 263 264 266 268 269 270 269 268 268 268 268 267 267 267 264 260 257 254 248 246 248 247 243 242 241 241 245 244 241 238 239
271 270 273 273 271 270 270 270 268 267 266 265 265 265 265 265 265 267 268 270 270 272 270 270 269 266 265 262 259 258 258 253 245 245 244 245 246 243 242 240 243 243 236
277 272 273 276 276 274 272 269 268 266 266 267 267 266 266 266 267 269 270 271 271 269 268 267 266 265 262 262 261 258 257 255 254 248 244 242 244 243 246 240 240 241 241
274 275 275 277 277 279 275 272 271 269 268 269 269 268 268 269 272 273 271 268 267 264 266 263 264 265 266 264 261 260 259 258 255 250 248 246 241 239 241 243 241 238 235
275 274 275 278 280 276 275 274 271 270 270 271 271 270 269 269 270 266 268 268 267 264 264 264 265 266 266 265 264 263 261 260 257 252 250 247 244 240 236 239 241 241 238
272 273 275 275 275 276 272 274 274 274 271 270 269 270 271 270 269 267 269 269 270 268 268 268 266 265 264 264 262 262 263 262 261 256 251 248 246 242 241 236 235 238 238
280 278 273 275 276 275 277 276 274 273 272 272 271 272 271 271 271 270 270 271 272 270 269 270 269 268 267 267 266 265 264 261 259 257 257 252 246 245 240 238 235 233 235
282 280 277 277 277 277 278 278 276 274 273 272 271 272 273 273 272 271 271 271 271 271 271 271 271 271 271 268 267 266 266 263 259 258 252 255 253 248 244 239 236 234 231
280 280 279 279 279 277 278 278 277 276 275 274 274 274 274 273 273 273 274 274 273 273 273 274 274 273 271 270 268 267 266 261 259 257 256 250 251 250 245 243 239 234 233